Location: Alpino
(32.5215°N, 116.5815°W)
Time: 08:58:00
(UTC+00:00)

Cosmos 1048 Rocket - Pass Details

Date: 13 April 2024
Orbit: 742 x 788 km, 74.0° (Epoch: 22 May)

Event Time Altitude Azimuth Distance (km) Brightness Sun altitude
Exits shadow 12:36:57 - 210° (SSW) 3,022 6.6 -9.3°
Reaches altitude 10° 12:38:46 10° 215° (SW) 2,335 6.0 -9.0°
Maximum altitude 12:43:54 49° 289° (WNW) 1,007 4.3 -7.9°
Drops below altitude 10° 12:49:01 10° 4° (N) 2,326 6.8 -6.9°
Sets 12:51:28 0° 10° (N) 3,249 7.6 -6.4°
